Flag for Germany Weather past 2 weeks in Rheinberg, North Rhine-Westphalia, Germany

Now
57 °F

Rain showers. Overcast.


Feels Like: 56 °F
Forecast: 49 / 61 °F
Wind: 5 mph from West

Location: Duesseldorf

Current Time: Apr 25, 2015 at 6:43:49 PM

Latest Report: Apr 25, 2015 at 6:00 PM


Visibility: 7 mi

Pressure: 29.76 "Hg

Humidity: 82%

Dew point: 51 °F

Location of RheinbergLocation

Historic Weather in Rheinberg — Graph

°F

Rheinberg temperature yesterday

Maximum temperature yesterday: 70 °F (at 6:00 PM)
Minimum temperature yesterday: 37 °F (at 6:00 AM)
Average temperature yesterday: 55 °F

Past Weeks' High & Low Weather Summary

 TemperatureHumidityPressure
High74 °F (Apr 15, 4:00 PM)97% (Apr 12, 2:00 AM)30.49 "Hg (Apr 12, 2:00 AM)
Low34 °F (Apr 19, 6:00 AM)29% (Apr 21, 4:00 PM)29.76 "Hg (Apr 25, 4:00 PM)
Average53 °F63%30.19 "Hg
* Reported Apr 10 4:00 PM — Apr 25 4:00 PM, Rheinberg, Weather by CustomWeather, © 2015

Note: Actual official high and low records may vary slightly from our data, if they occured in-between our weather recording intervals... More about our weather records

Advertising

Rheinberg weather history for previous 24 hours

 ConditionsComfort  
Time TempWeatherWind HumidityBarometerVisibility
4:00 PM
Sat, Apr 25
58 °FOvercast.3 mph81%29.76 "Hg7 mi
3:00 PM59 °FLight rain. Overcast.5 mph78%29.77 "Hg6 mi
2:00 PM57 °FLight rain. Overcast.3 mph83%29.77 "Hg6 mi
1:00 PM57 °FLight rain. Overcast.3 mph82%29.78 "Hg6 mi
12:00 PM56 °FLight rain. Overcast.3 mph81%29.79 "Hg6 mi
10:00 AM52 °FLight rain. Overcast.3 mph91%29.80 "Hg5 mi
9:00 AM53 °FLight rain. Overcast.3 mph88%29.80 "Hg4 mi
8:00 AM53 °FLight rain. Overcast.1 mph88%29.79 "Hg4 mi
7:00 AM53 °FLight rain. Overcast.3 mph87%29.80 "Hg4 mi
6:00 AM53 °FOvercast.2 mph86%29.79 "Hg6 mi
3:00 AM57 °FOvercast.1 mph87%29.80 "Hg14 mi
1:00 AM62 °FLight rain. Overcast.6 mph60%29.81 "Hg15 mi
12:00 AM60 °FOvercast.5 mph59%29.80 "Hg15 mi
10:00 PM
Fri, Apr 24
64 °FOvercast.3 mph50%29.81 "Hg14 mi
9:00 PM62 °FOvercast.2 mph53%29.81 "Hg12 mi
8:00 PM65 °FOvercast.3 mph51%29.82 "Hg16 mi
7:00 PM68 °FOvercast.3 mph40%29.83 "Hg16 mi
6:00 PM70 °FOvercast.5 mph33%29.84 "Hg16 mi
Weather by CustomWeather, © 2015

See weather overviewHow to use our weather pages